Home   Weather   Galveston   Past weeks

Flag for USA Past Weather in Galveston, Texas, USA — Yesterday and Last 2 Weeks

Now
72 °F

Sunny.


Feels Like: 77 °F
Forecast: 57 / 66 °F
Wind: 28 mph from Northwest

Location: Scholes Field

Current Time: Jan 22, 2017 at 2:40:09 pm

Latest Report: Jan 22, 2017 at 1:52 pm


Visibility: 10 mi

Pressure: 29.61 "Hg

Humidity: 38%

Dew Point: 45 °F

Location of GalvestonLocation

Past Weather in Galveston — Graph

°F

Galveston Temperature Yesterday

Maximum temperature yesterday: 74 °F (at 11:52 am)
Minimum temperature yesterday: 66 °F (at 7:52 pm)
Average temperature yesterday: 70 °F

High & Low Weather Summary for the Past Weeks

 TemperatureHumidityPressure
High75 °F (Jan 12, 12:52 pm)100% (Jan 12, 9:52 pm)30.75 "Hg (Jan 12, 9:52 pm)
Low35 °F (Jan 8, 3:52 am)33% (Jan 22, 10:52 am)29.46 "Hg (Jan 21, 3:59 pm)
Average66 °F87%30.07 "Hg
* Reported Jan 7 12:52 pm — Jan 22 12:52 pm, Galveston, Weather by CustomWeather, © 2017

Note: Actual official high and low records may vary slightly from our data, if they occured in-between our weather recording intervals... More about our weather records

Advertising

Galveston Weather History for the Previous 24 Hours

Scroll right to see more
 ConditionsComfort  
Time TempWeatherWind HumidityBarometerVisibility
12:52 pm
Sun, Jan 22
70 °FSunny.29 mph39%29.61 "Hg10 mi
11:52 am70 °FSunny.28 mph37%29.62 "Hg10 mi
10:52 am68 °FSunny.30 mph33%29.63 "Hg10 mi
9:52 am66 °FSunny.21 mph34%29.61 "Hg10 mi
8:52 am64 °FSunny.18 mph40%29.62 "Hg10 mi
7:52 am62 °FSunny.12 mph46%29.61 "Hg10 mi
6:52 am62 °FClear.12 mph46%29.60 "Hg10 mi
5:52 am63 °FClear.22 mph47%29.58 "Hg10 mi
4:52 am65 °FClear.20 mph45%29.58 "Hg10 mi
3:52 am67 °FPassing clouds.21 mph49%29.57 "Hg10 mi
2:52 am66 °FClear.5 mph63%29.57 "Hg10 mi
1:52 am66 °FOvercast.14 mph65%29.59 "Hg10 mi
12:52 am66 °FPassing clouds.18 mph61%29.58 "Hg10 mi
11:52 pm
Sat, Jan 21
68 °FLight rain. Partly cloudy.7 mph87%29.57 "Hg10 mi
10:52 pm70 °FLight rain. Fog.3 mph93%29.54 "Hg6 mi
9:52 pm69 °FClear.10 mph90%29.50 "Hg7 mi
9:09 pm68 °FFog.5 mph96%29.48 "Hg3 mi
8:52 pm67 °FFog.3 mph97%29.48 "Hg2 mi
8:29 pm67 °FFog.No wind97%29.48 "Hg1 mi
7:52 pm66 °FFog.6 mph96%29.47 "Hg2 mi
7:40 pm67 °FFog.7 mph93%29.48 "Hg2 mi
7:08 pm68 °FFog.8 mph96%29.48 "Hg3 mi
5:52 pm69 °FFog.13 mph93%29.48 "Hg3 mi
4:52 pm71 °FFog.12 mph87%29.46 "Hg3 mi
3:59 pm72 °FFog.20 mph87%29.46 "Hg5 mi
2:52 pm74 °FHaze.14 mph85%29.46 "Hg5 mi
2:14 pm74 °FHaze.13 mph82%29.49 "Hg5 mi
Weather by CustomWeather, © 2017

See weather overviewHow to use our weather pages